Hourly Data Report for October 22, 2013

All times are specified in Local Standard Time (LST). Add 1 hour to adjust for Daylight Saving Time where and when it is observed.

TORONTO INTL A
ONTARIO

43°40'36.000" N
79°37'50.000" W
173.40 m
6158731
71624
YYZ

Download Data

Hourly Data (October 2013)
Hourly Data Report for October 22, 2013
Temp Definition
°C
Dew Point Temp Definition
°C
Rel Hum Definition
%
Wind Dir Definition
10's deg

Wind Spd Definition
km/h
Visibility Definition
km
Stn Press Definition
kPa
Hmdx Definition


Wind Chill Definition


Weather Definition


TIME
00:00 Legend Double Dagger 7.7 4.8 82 27 15 24.1 98.70     LegendNANA
01:00 Legend Double Dagger 6.9 3.9 81 26 17 24.1 98.70     Mostly Cloudy
02:00 Legend Double Dagger 5.3 3.2 86 23 13 24.1 98.73     LegendNANA
03:00 Legend Double Dagger 4.7 2.2 84 23 14 24.1 98.71     LegendNANA
04:00 Legend Double Dagger 5.7 2.7 81 23 18 24.1 98.72     Mostly Cloudy
05:00 Legend Double Dagger 5.3 3.2 86 27 19 19.3 98.78     Rain Showers
06:00 Legend Double Dagger 4.7 -0.3 70 26 29 24.1 98.82     LegendNANA
07:00 Legend Double Dagger 3.2 -1.6 71 25 24 24.1 98.86     Mainly Clear
08:00 Legend Double Dagger 4.1 -2.1 64 25 26 24.1 98.91     LegendNANA
09:00 Legend Double Dagger 5.1 -1.8 61 25 30 24.1 98.93     LegendNANA
10:00 Legend Double Dagger 6.3 -1.4 58 25 25 24.1 98.92     Mostly Cloudy
11:00 Legend Double Dagger 6.4 -2.2 54 25 28 24.1 98.93     LegendNANA
12:00 Legend Double Dagger 6.8 -1.6 55 25 27 24.1 98.91     LegendNANA
13:00 Legend Double Dagger 6.6 -1.5 56 25 36 24.1 98.86     Mostly Cloudy
14:00 Legend Double Dagger 7.3 -0.6 57 24 24 24.1 98.82     LegendNANA
15:00 Legend Double Dagger 8.2 0.0 56 24 29 24.1 98.80     LegendNANA
16:00 Legend Double Dagger 7.9 -0.1 57 25 28 24.1 98.80     Mostly Cloudy
17:00 Legend Double Dagger 6.9 -0.3 60 25 26 24.1 98.82     LegendNANA
18:00 Legend Double Dagger 6.2 -0.1 64 24 21 24.1 98.85     LegendNANA
19:00 Legend Double Dagger 5.9 0.9 70 27 16 24.1 98.89     Mostly Cloudy
20:00 Legend Double Dagger 4.9 1.2 77 28 10 24.1 98.91     LegendNANA
21:00 Legend Double Dagger 4.6 1.5 80 30 12 24.1 98.94     LegendNANA
22:00 Legend Double Dagger 3.7 1.3 84 25 14 24.1 98.94     Mostly Cloudy
23:00 Legend Double Dagger 4.0 1.2 82 26 15 24.1 98.88     LegendNANA

Notes on Data Quality.

Legend

  • E = Estimated
  • M = Missing
  • NA = Not Available
  • ‡ = Partner data that is not subject to review by the National Climate Archives
Date modified: